[[{"header":{"parameterUnit":"m.s-1","parameterCategory":1,"la1":30.2991,"la2":30.254,"lo1":-89.0895,"lo2":-89.0444,"dy":0.0017,"dx":0.0017,"nx":28,"ny":28,"refTime":"2024-09-29T09:00:00:Z","depth":0,"parameterNumber":2,"parameterNumberName":"U-component_of_WINDS"},"data":[0,0,0,0,0,0,0,0,0,0,0,0,0,0,0,0,0,0,0,0,0,0,0,0,0,0,0,0,0,0,0,0,0,0,0,0,0,0,0,0,0,0,0,0,0,0,0,0,0,0,0,0,0,0,0,0,0,0,1.965,1.965,0,1.9706,1.9706,1.9707,1.9736,1.9736,1.9736,1.9736,1.9794,1.9795,1.9797,0,0,0,0,0,0,0,0,0,0,0,0,0,1.9572,1.9573,1.965,1.965,1.9651,1.9705,1.9706,1.9707,1.9736,1.9736,1.9736,1.9736,1.9793,1.9795,1.9797,0,0,0,0,0,0,0,0,0,0,0,0,0,1.9614,1.9573,1.965,1.9672,1.9675,1.9705,1.9706,1.9707,1.9736,1.9736,1.9736,1.9736,1.9793,1.9795,1.9797,1.981,0,0,1.9804,1.9805,0,0,0,0,0,0,0,0,1.9612,1.9617,1.9668,1.9671,1.9674,1.9714,1.97,1.9742,1.9736,1.9713,1.9736,1.9736,1.9767,1.9772,1.9782,1.9813,1.9815,1.9804,1.9806,1.9807,1.9807,0,0,0,0,0,0,0,1.9609,1.9615,1.9672,1.9669,1.9672,1.9681,1.9687,1.9708,1.9739,1.9715,1.9717,1.9723,1.9769,1.978,1.9784,1.9816,1.9804,1.9806,1.9808,1.9808,1.9864,1.9864,0,0,0,0,0,0,1.9602,1.9612,1.967,1.9673,1.9642,1.9682,1.9689,1.9701,1.9739,1.9745,1.9723,1.9724,1.9776,1.9781,1.9786,1.9805,1.9807,1.9809,1.981,1.9864,1.9864,1.9864,0,0,0,0,0,0,1.96,1.9607,1.9668,1.9644,1.9652,1.9683,1.9697,1.9702,1.9713,1.9745,1.9751,1.9728,1.9776,1.9782,1.9804,1.9807,1.981,1.9812,1.9864,1.9864,1.9864,1.9843,0,0,0,0,0,0,1.9598,1.9606,1.961,1.9643,1.9653,1.9684,1.9697,1.9703,1.9717,1.9719,1.9752,1.9757,1.9777,1.9801,1.9807,1.9811,1.9814,1.9863,1.9864,1.9864,1.9843,1.9842,1.9841,0,0,0,0,0,1.9595,1.9601,1.961,1.9617,1.9659,1.9684,1.969,1.9712,1.9717,1.9722,1.9743,1.9756,1.9806,1.9803,1.981,1.9814,1.9863,1.9864,1.9864,1.9844,1.9842,1.9841,0,0,0,0,0,0,1.9566,1.9606,1.9616,1.9633,1.9655,1.9689,1.9696,1.971,1.9731,1.9732,1.9759,1.9766,1.9786,1.9803,1.9798,1.9831,1.9836,1.9838,1.9819,1.9818,1.9817,1.9812,1.9815,0,0,0,0,0,1.9562,1.9579,1.9613,1.9625,1.9636,1.9664,1.9676,1.9692,1.9716,1.9725,1.9748,1.9771,1.9793,1.9806,1.9828,1.9846,1.9855,1.9853,1.9852,1.9851,1.9852,1.9866,1.9866,1.9865,1.9865,1.9865,0,0,1.9554,1.9577,1.9586,1.962,1.9639,1.9657,1.9672,1.9689,1.9704,1.9728,1.975,1.9768,1.9797,1.9818,1.9828,1.9832,1.9855,1.9852,1.985,1.9852,1.9866,1.9867,1.9867,1.9865,1.9865,1.9865,0,0,1.9547,1.9566,1.9579,1.9599,1.9628,1.9647,1.9651,1.9684,1.9697,1.972,1.9739,1.9758,1.9793,1.9813,1.9828,1.9834,1.9848,1.9841,1.9835,1.9848,1.9848,1.9848,1.9852,1.9853,1.9841,1.9841,1.9841,0,1.9533,1.956,1.9584,1.9602,1.9618,1.9642,1.9657,1.9674,1.9709,1.972,1.9724,1.9771,1.9792,1.9819,1.9821,1.9832,1.9838,1.9836,1.9846,1.9847,1.9847,1.9851,1.9852,1.984,1.9841,1.9841,1.9841,0,1.9542,1.9561,1.9568,1.9602,1.9619,1.9635,1.9663,1.9677,1.9692,1.9712,1.9737,1.9763,1.9792,1.98,1.9814,1.983,1.9832,1.9841,1.9847,1.9846,1.985,1.9852,1.9839,1.9839,1.984,1.984,0,0,1.9516,1.9566,1.9568,1.9585,1.9621,1.9637,1.9656,1.9684,1.9696,1.972,1.9738,1.9769,1.9779,1.9796,1.9813,1.9825,1.9831,1.9833,1.9834,1.9833,1.9853,1.9846,1.9847,1.9841,1.9841,1.9841,1.9851,0,1.9515,1.9549,1.9573,1.9598,1.9618,1.9643,1.966,1.9684,1.9704,1.9725,1.9747,1.977,1.9779,1.979,1.9803,1.9827,1.9835,1.9827,1.9858,1.9859,1.985,1.9849,1.9841,1.9849,1.9853,1.9853,1.9853,0,1.9518,1.9542,1.9569,1.9606,1.9615,1.9629,1.9659,1.9678,1.9708,1.9722,1.9743,1.9762,1.9785,1.979,1.9823,1.9817,1.9832,1.9846,1.9847,1.9851,1.9856,1.9853,1.9852,1.9853,1.9856,1.9855,1.9855,0,1.9498,1.9538,1.956,1.9574,1.9616,1.9627,1.9645,1.9675,1.9692,1.9718,1.973,1.9758,1.9774,1.9797,1.9824,1.9825,1.9856,1.9863,1.9869,1.9868,1.9873,1.9873,1.9875,1.9883,1.9883,1.9883,1.9883,0,1.9495,1.951,1.9552,1.9565,1.9585,1.9614,1.9633,1.9654,1.9681,1.9701,1.9725,1.9742,1.9777,1.98,1.9821,1.9847,1.9854,1.9867,1.9872,1.9865,1.9863,1.9874,1.9875,1.9883,1.9883,1.9883,1.9883,0,1.9475,1.9503,1.9529,1.9569,1.9579,1.9592,1.9627,1.9642,1.9665,1.9689,1.9697,1.9732,1.9761,1.9791,1.9829,1.9844,1.9869,1.9876,1.9859,1.9862,1.9867,1.9866,1.9876,1.988,1.9885,1.9885,1.9885,0,1.947,1.9483,1.9525,1.954,1.9558,1.9581,1.9599,1.963,1.9647,1.9685,1.9696,1.9727,1.9752,1.9797,1.9827,1.9858,1.9867,1.9868,1.9871,1.9864,1.9868,1.9867,1.9869,1.9867,1.9866,1.9866,1.9866,0,1.946,1.9474,1.9498,1.9529,1.9549,1.9574,1.9601,1.9612,1.9648,1.9667,1.9697,1.9717,1.9758,1.9789,1.9824,1.9844,1.9862,1.9866,1.9869,1.9861,1.985,1.9857,1.9856,1.9865,1.9865,1.9865,1.9865,1.9865,1.9448,1.9462,1.9494,1.9522,1.9545,1.957,1.9587,1.9613,1.9638,1.9673,1.9691,1.9721,1.9754,1.9803,1.9824,1.985,1.9854,1.9859,1.986,1.986,1.9859,1.9847,1.9856,1.9856,1.9856,1.9856,1.9856,0,1.944,1.9463,1.9488,1.9524,1.9547,1.9562,1.9593,1.9611,1.9637,1.9667,1.9692,1.9728,1.9759,1.9793,1.9827,1.9841,1.985,1.9849,1.9848,1.9853,1.9852,1.9846,1.9841,1.9841,1.9841,1.9841,1.9841,1.9841,1.9438,1.9463,1.9482,1.952,1.9543,1.9573,1.9589,1.9614,1.9638,1.9677,1.9703,1.9725,1.9757,1.9794,1.9824,1.9834,1.9845,1.9842,1.9853,1.9852,1.9853,1.9854,1.9849,1.9844,1.9844,1.9852,1.9852,1.9852]},{"header":{"parameterUnit":"m.s-1","parameterCategory":1,"la1":30.2991,"la2":30.254,"lo1":-89.0895,"lo2":-89.0444,"dy":0.0017,"dx":0.0017,"nx":28,"ny":28,"refTime":"2024-09-29T09:00:00:Z","depth":0,"parameterNumber":3,"parameterNumberName":"V-component_of_WINDS"},"data":[0,0,0,0,0,0,0,0,0,0,0,0,0,0,0,0,0,0,0,0,0,0,0,0,0,0,0,0,0,0,0,0,0,0,0,0,0,0,0,0,0,0,0,0,0,0,0,0,0,0,0,0,0,0,0,0,0,0,2.019,2.019,0,2.0246,2.0247,2.0247,2.029,2.0291,2.0291,2.0292,2.0346,2.0347,2.0348,0,0,0,0,0,0,0,0,0,0,0,0,0,2.0114,2.0115,2.019,2.019,2.0191,2.0246,2.0247,2.0248,2.029,2.0291,2.0291,2.0292,2.0345,2.0347,2.0348,0,0,0,0,0,0,0,0,0,0,0,0,0,2.0156,2.0116,2.019,2.0219,2.0222,2.0246,2.0247,2.0248,2.029,2.0291,2.0292,2.0292,2.0345,2.0346,2.0348,2.0345,0,0,2.0353,2.0354,0,0,0,0,0,0,0,0,2.0154,2.0159,2.0214,2.0217,2.0221,2.0262,2.024,2.028,2.029,2.0264,2.0292,2.0292,2.0317,2.0321,2.033,2.0348,2.035,2.0353,2.0354,2.0355,2.0355,0,0,0,0,0,0,0,2.0151,2.0157,2.0212,2.0215,2.0219,2.0228,2.0235,2.0248,2.0286,2.0267,2.027,2.0276,2.0319,2.0328,2.0332,2.0351,2.0353,2.0354,2.0355,2.0356,2.0367,2.0366,0,0,0,0,0,0,2.0144,2.0154,2.021,2.0214,2.0188,2.0229,2.0236,2.0248,2.0286,2.0293,2.0276,2.0278,2.0325,2.033,2.0334,2.0332,2.0355,2.0356,2.0357,2.0367,2.0367,2.0366,0,0,0,0,0,0,2.0142,2.0148,2.0208,2.0185,2.0193,2.023,2.0242,2.0249,2.0259,2.0293,2.03,2.0279,2.0326,2.0331,2.0342,2.0334,2.0357,2.0358,2.0368,2.0367,2.0366,2.0328,0,0,0,0,0,0,2.014,2.0148,2.0148,2.0184,2.0194,2.0217,2.0242,2.025,2.0262,2.0265,2.0298,2.0304,2.0327,2.0339,2.0343,2.0337,2.0359,2.0369,2.0368,2.0367,2.033,2.0326,2.0322,0,0,0,0,0,2.0137,2.0135,2.0148,2.0155,2.0196,2.0216,2.0221,2.0249,2.0261,2.0261,2.0283,2.0303,2.0334,2.034,2.0345,2.0339,2.037,2.0368,2.0367,2.0332,2.0327,2.0323,0,0,0,0,0,0,2.0096,2.0141,2.0155,2.0166,2.0187,2.0223,2.0225,2.0243,2.0261,2.0263,2.0296,2.0303,2.0309,2.0325,2.0331,2.0337,2.0354,2.0354,2.0326,2.0322,2.0318,2.0314,2.0361,0,0,0,0,0,2.0089,2.0103,2.014,2.0145,2.0155,2.0188,2.0198,2.0217,2.024,2.0249,2.0272,2.0292,2.0306,2.0315,2.033,2.0333,2.0339,2.0331,2.0327,2.0323,2.0322,2.0323,2.0319,2.0361,2.0361,2.0361,0,0,2.0073,2.0099,2.0106,2.0138,2.0157,2.0169,2.0195,2.0207,2.0216,2.025,2.0262,2.0279,2.0303,2.0309,2.0313,2.0322,2.0312,2.0321,2.0318,2.0319,2.0321,2.0316,2.0313,2.036,2.036,2.036,0,0,2.0051,2.0072,2.0078,2.0096,2.0124,2.0146,2.0147,2.018,2.0193,2.0205,2.023,2.024,2.0265,2.028,2.0292,2.0272,2.029,2.0276,2.0255,2.0255,2.0252,2.0249,2.024,2.0237,2.0275,2.0275,2.0275,0,2.0027,2.0048,2.0079,2.0089,2.0101,2.0133,2.0138,2.0154,2.0185,2.0191,2.0202,2.0232,2.0251,2.026,2.0255,2.0264,2.0264,2.0272,2.025,2.0248,2.0245,2.0237,2.0234,2.0273,2.0273,2.0273,2.0273,0,2.0017,2.003,2.0031,2.0061,2.0074,2.0081,2.0111,2.0119,2.0137,2.0156,2.0166,2.019,2.021,2.0213,2.0231,2.0224,2.0229,2.0244,2.0262,2.0239,2.0232,2.0229,2.027,2.0271,2.0271,2.0272,0,0,1.9972,2.0017,2.0017,2.0029,2.0062,2.0072,2.0079,2.01,2.0105,2.0125,2.0131,2.015,2.0164,2.0176,2.0195,2.0195,2.0176,2.0211,2.0212,2.0202,2.0168,2.0155,2.0152,2.0189,2.0188,2.0188,2.0165,0,1.9953,1.997,1.9997,2.0004,2.0016,2.0045,2.0052,2.0071,2.0089,2.01,2.0119,2.0131,2.015,2.0157,2.0158,2.0178,2.017,2.018,2.0193,2.0193,2.0185,2.0148,2.0136,2.0114,2.0163,2.0163,2.0162,0,1.9934,1.9953,1.9961,1.9991,1.9996,2.0002,2.0021,2.0032,2.0053,2.0066,2.0079,2.01,2.0107,2.0124,2.0133,2.014,2.0146,2.0156,2.0156,2.0158,2.0176,2.0148,2.0108,2.0104,2.0159,2.0159,2.0159,0,1.9899,1.9925,1.9933,1.9944,1.9979,1.9981,1.9995,2.0018,2.0027,2.0043,2.0049,2.0066,2.0074,2.0086,2.0109,2.012,2.0115,2.0135,2.0125,2.0124,2.0122,2.0122,2.0081,2.0128,2.0128,2.0128,2.0128,0,1.9875,1.9879,1.9917,1.9922,1.9927,1.9956,1.9959,1.9976,1.9995,2.0002,2.0028,2.0034,2.0066,2.0074,2.0093,2.0096,2.01,2.011,2.0114,2.0107,2.0105,2.0111,2.0113,2.0127,2.0127,2.0127,2.0127,0,1.9836,1.9862,1.9873,1.9905,1.9912,1.9914,1.994,1.9945,1.9964,1.9972,1.9976,2.0005,2.0016,2.0041,2.006,2.0072,2.007,2.008,2.0063,2.0066,2.0054,2.0054,2.0015,2.001,2.0061,2.006,2.006,0,1.9819,1.9822,1.9854,1.9861,1.9874,1.9886,1.9895,1.9923,1.9932,1.9955,1.9957,1.997,1.9983,2.0,2.0021,2.0035,2.0044,2.0029,2.0046,2.0037,2.0042,2.0041,2.004,2.0025,2.0024,2.0024,2.0023,0,1.9785,1.9797,1.9811,1.9828,1.9839,1.9854,1.987,1.9874,1.9905,1.9913,1.9926,1.9935,1.9953,1.9966,1.9982,1.9995,2.0013,2.0018,2.0016,2.0008,1.9998,2.0001,2.0052,2.0018,2.0019,2.0019,2.0019,2.002,1.9755,1.9759,1.9781,1.9795,1.981,1.9824,1.9829,1.9848,1.9859,1.9877,1.9893,1.9903,1.9922,1.9946,1.9957,1.9965,1.9974,1.9972,1.9971,1.997,1.9966,1.9997,1.9968,1.9968,1.9968,1.9968,1.9968,0,1.9721,1.9737,1.9749,1.9771,1.978,1.9798,1.9816,1.9822,1.9831,1.9848,1.986,1.9872,1.9884,1.9906,1.9919,1.9921,1.9929,1.9923,1.9923,1.9925,1.9957,1.9957,1.9916,1.9916,1.9916,1.9916,1.9916,1.9916,1.9705,1.9712,1.9726,1.9739,1.9754,1.9765,1.9774,1.9786,1.9799,1.9813,1.9823,1.9837,1.9855,1.987,1.988,1.9886,1.9889,1.988,1.9889,1.9918,1.9923,1.9928,1.9928,1.9881,1.9881,1.9856,1.9855,1.9855]}]]